QPF
0.02 0.02 0.02 0.02 0.03 0.02 0.02 0.02 0.02 0.01 0.01 0.01 0.01 0.01 0.00 0.00 0.00 0.00 0.00 0.00 0.00 0.00 0.00 0.00 0.00 0.00 0.00 0.01 0.01 0.01 0.02 0.02 0.02 0.01 0.01 0.01 0.01 0.01 0.00 0.00 0.00 0.00 0.00 0.00
0.02 0.02 0.01 0.01 0.02 0.02 0.02 0.02 0.02 0.01 0.01 0.01 0.01 0.00 0.00 0.00 0.00 0.00 0.00 0.00 0.00 0.00 0.00 0.00 0.00 0.00 0.00 0.00 0.00 0.01 0.01 0.01 0.02 0.02 0.02 0.02 0.01 0.01 0.00 0.00 0.00 0.00 0.00 0.00
0.02 0.01 0.01 0.02 0.01 0.01 0.01 0.01 0.01 0.01 0.01 0.00 0.00 0.00 0.01 0.00 0.00 0.00 0.00 0.00 0.00 0.00 0.00 0.00 0.00 0.00 0.00 0.00 0.00 0.00 0.01 0.01 0.01 0.02 0.02 0.02 0.02 0.01 0.01 0.00 0.00 0.00 0.00 0.00
0.02 0.01 0.02 0.01 0.01 0.01 0.01 0.01 0.00 0.00 0.00 0.00 0.00 0.01 0.01 0.01 0.00 0.00 0.00 0.00 0.00 0.00 0.00 0.00 0.00 0.00 0.00 0.00 0.00 0.00 0.01 0.01 0.01 0.01 0.02 0.02 0.02 0.01 0.01 0.00 0.00 0.00 0.00 0.00
0.03 0.02 0.01 0.01 0.01 0.01 0.01 0.01 0.01 0.01 0.01 0.01 0.00 0.00 0.01 0.01 0.01 0.00 0.00 0.00 0.00 0.00 0.01 0.01 0.00 0.00 0.00 0.01 0.01 0.01 0.01 0.01 0.01 0.01 0.01 0.01 0.01 0.01 0.01 0.00 0.00 0.00 0.00 0.00
0.04 0.03 0.02 0.01 0.01 0.01 0.01 0.01 0.01 0.01 0.00 0.00 0.00 0.00 0.01 0.01 0.01 0.01 0.00 0.00 0.00 0.01 0.01 0.01 0.01 0.01 0.00 0.01 0.01 0.01 0.01 0.01 0.01 0.01 0.02 0.02 0.01 0.01 0.00 0.00 0.00 0.00 0.00 0.00
0.04 0.03 0.02 0.01 0.01 0.01 0.01 0.01 0.01 0.01 0.01 0.01 0.01 0.01 0.01 0.01 0.01 0.00 0.00 0.00 0.00 0.00 0.00 0.01 0.01 0.01 0.01 0.01 0.01 0.01 0.01 0.01 0.01 0.01 0.01 0.01 0.01 0.01 0.01 0.01 0.00 0.00 0.00 0.00
0.03 0.04 0.02 0.01 0.01 0.01 0.01 0.01 0.01 0.01 0.01 0.01 0.01 0.01 0.01 0.01 0.01 0.00 0.00 0.00 0.00 0.00 0.00 0.00 0.00 0.00 0.00 0.00 0.01 0.00 0.00 0.00 0.00 0.00 0.00 0.00 0.00 0.01 0.01 0.01 0.01 0.00 0.00 0.00
0.02 0.03 0.02 0.02 0.02 0.02 0.01 0.01 0.01 0.01 0.01 0.01 0.01 0.00 0.00 0.00 0.00 0.00 0.00 0.00 0.00 0.00 0.00 0.00 0.00 0.00 0.00 0.00 0.00 0.00 0.00 0.00 0.00 0.00 0.00 0.00 0.00 0.00 0.00 0.01 0.01 0.01 0.01 0.01
0.02 0.02 0.02 0.03 0.03 0.02 0.01 0.01 0.02 0.01 0.01 0.01 0.01 0.00 0.00 0.00 0.00 0.00 0.00 0.00 0.00 0.00 0.00 0.00 0.00 0.00 0.00 0.00 0.00 0.00 0.00 0.00 0.00 0.00 0.00 0.00 0.00 0.00 0.00 0.01 0.01 0.01 0.01 0.01
0.02 0.01 0.01 0.01 0.01 0.02 0.02 0.01 0.01 0.01 0.01 0.01 0.01 0.01 0.01 0.00 0.01 0.01 0.00 0.00 0.00 0.00 0.00 0.00 0.00 0.00 0.00 0.00 0.00 0.00 0.00 0.00 0.00 0.00 0.00 0.00 0.00 0.00 0.01 0.01 0.01 0.02 0.02 0.02
0.02 0.02 0.02 0.02 0.02 0.02 0.02 0.02 0.02 0.02 0.02 0.01 0.01 0.01 0.01 0.01 0.01 0.01 0.01 0.01 0.00 0.00 0.00 0.00 0.00 0.00 0.00 0.00 0.00 0.00 0.00 0.00 0.00 0.00 0.00 0.00 0.00 0.00 0.00 0.00 0.00 0.01 0.02 0.02
0.02 0.02 0.02 0.02 0.02 0.02 0.02 0.02 0.03 0.02 0.01 0.01 0.01 0.01 0.01 0.01 0.01 0.01 0.01 0.01 0.01 0.01 0.00 0.00 0.00 0.00 0.00 0.00 0.00 0.00 0.00 0.00 0.00 0.00 0.00 0.00 0.00 0.00 0.00 0.00 0.00 0.00 0.00 0.01
0.01 0.01 0.02 0.01 0.01 0.01 0.02 0.02 0.02 0.02 0.01 0.01 0.01 0.01 0.01 0.01 0.01 0.01 0.01 0.01 0.01 0.01 0.01 0.01 0.00 0.00 0.00 0.00 0.00 0.00 0.00 0.00 0.00 0.00 0.00 0.00 0.00 0.00 0.00 0.00 0.00 0.00 0.00 0.00
0.01 0.01 0.01 0.01 0.02 0.02 0.01 0.01 0.01 0.01 0.01 0.01 0.01 0.01 0.01 0.01 0.01 0.02 0.01 0.01 0.01 0.01 0.01 0.01 0.00 0.00 0.00 0.00 0.00 0.00 0.00 0.00 0.00 0.00 0.00 0.00 0.00 0.00 0.00 0.00 0.00 0.00 0.00 0.00
0.01 0.01 0.01 0.01 0.01 0.01 0.01 0.01 0.01 0.01 0.01 0.01 0.01 0.01 0.01 0.01 0.01 0.01 0.01 0.01 0.01 0.01 0.01 0.00 0.00 0.00 0.00 0.00 0.00 0.00 0.00 0.00 0.00 0.00 0.00 0.00 0.00 0.00 0.00 0.00 0.00 0.00 0.00 0.00
0.02 0.02 0.01 0.01 0.01 0.01 0.01 0.01 0.01 0.01 0.02 0.01 0.01 0.01 0.01 0.01 0.01 0.01 0.01 0.01 0.01 0.00 0.00 0.00 0.00 0.00 0.00 0.00 0.00 0.00 0.00 0.00 0.00 0.00 0.00 0.00 0.00 0.01 0.01 0.01 0.01 0.01 0.00 0.01
0.02 0.02 0.02 0.02 0.01 0.01 0.01 0.01 0.02 0.02 0.02 0.01 0.01 0.01 0.01 0.01 0.01 0.01 0.01 0.00 0.00 0.00 0.00 0.00 0.01 0.00 0.00 0.00 0.00 0.00 0.00 0.00 0.00 0.00 0.00 0.01 0.01 0.01 0.01 0.01 0.01 0.01 0.01 0.00
0.02 0.02 0.02 0.01 0.01 0.01 0.01 0.02 0.02 0.01 0.01 0.01 0.01 0.01 0.01 0.01 0.01 0.01 0.00 0.00 0.00 0.00 0.00 0.00 0.00 0.00 0.00 0.00 0.00 0.00 0.00 0.00 0.00 0.00 0.00 0.01 0.01 0.01 0.01 0.01 0.01 0.01 0.01 0.01
0.01 0.01 0.01 0.01 0.01 0.01 0.02 0.02 0.01 0.01 0.01 0.01 0.01 0.01 0.01 0.01 0.01 0.01 0.00 0.00 0.00 0.00 0.00 0.00 0.00 0.00 0.00 0.00 0.01 0.01 0.01 0.00 0.00 0.00 0.00 0.01 0.01 0.01 0.01 0.01 0.01 0.01 0.01 0.01
0.01 0.01 0.01 0.02 0.02 0.02 0.01 0.01 0.01 0.01 0.01 0.01 0.01 0.01 0.01 0.01 0.01 0.01 0.00 0.00 0.00 0.00 0.00 0.00 0.00 0.00 0.01 0.01 0.01 0.00 0.00 0.00 0.00 0.01 0.01 0.01 0.01 0.01 0.01 0.01 0.01 0.01 0.01 0.01
0.01 0.02 0.02 0.02 0.02 0.01 0.01 0.01 0.01 0.01 0.01 0.01 0.01 0.01 0.01 0.01 0.00 0.00 0.00 0.00 0.00 0.00 0.00 0.00 0.00 0.01 0.02 0.01 0.01 0.00 0.00 0.00 0.01 0.01 0.01 0.01 0.01 0.01 0.01 0.01 0.01 0.01 0.01 0.01
0.02 0.02 0.02 0.01 0.01 0.01 0.01 0.01 0.01 0.01 0.01 0.01 0.01 0.01 0.01 0.01 0.01 0.00 0.01 0.00 0.00 0.01 0.01 0.01 0.01 0.01 0.02 0.01 0.01 0.00 0.00 0.00 0.01 0.01 0.01 0.01 0.01 0.01 0.01 0.01 0.01 0.01 0.02 0.02
0.02 0.01 0.01 0.01 0.01 0.00 0.00 0.00 0.00 0.00 0.00 0.01 0.01 0.01 0.01 0.01 0.01 0.01 0.01 0.01 0.01 0.01 0.01 0.01 0.01 0.01 0.01 0.01 0.00 0.00 0.00 0.01 0.01 0.01 0.01 0.01 0.01 0.01 0.01 0.01 0.01 0.01 0.01 0.02
0.01 0.01 0.01 0.01 0.00 0.00 0.00 0.00 0.00 0.00 0.00 0.00 0.00 0.01 0.01 0.01 0.01 0.01 0.01 0.00 0.00 0.00 0.00 0.00 0.01 0.01 0.01 0.01 0.00 0.01 0.01 0.01 0.01 0.01 0.01 0.01 0.01 0.01 0.01 0.01 0.01 0.01 0.01 0.02
0.01 0.01 0.01 0.01 0.00 0.00 0.00 0.00 0.00 0.00 0.00 0.00 0.00 0.00 0.00 0.00 0.00 0.00 0.00 0.00 0.00 0.00 0.00 0.00 0.00 0.00 0.00 0.00 0.00 0.00 0.01 0.01 0.01 0.01 0.01 0.01 0.01 0.01 0.01 0.01 0.01 0.01 0.01 0.01
0.00 0.00 0.00 0.00 0.00 0.00 0.00 0.00 0.00 0.00 0.00 0.00 0.00 0.00 0.00 0.00 0.00 0.00 0.00 0.00 0.00 0.00 0.00 0.00 0.00 0.00 0.00 0.00 0.00 0.00 0.00 0.00 0.01 0.01 0.01 0.01 0.01 0.01 0.01 0.01 0.01 0.01 0.01 0.01
MSLP
1001.27 1001.50 1001.98 1002.67 1003.51 1004.40 1005.28 1006.09 1006.78 1007.34 1007.77 1008.10 1008.35 1008.55 1008.70 1008.82 1008.89 1008.90 1008.82 1008.66 1008.43 1008.14 1007.84 1007.58 1007.41 1007.38 1007.52 1007.83 1008.32 1008.95 1009.67 1010.43 1011.20 1011.94 1012.62 1013.24 1013.80 1014.32 1014.82 1015.32 1015.83 1016.37 1016.92 1017.50
1002.03 1002.35 1002.95 1003.76 1004.72 1005.74 1006.74 1007.66 1008.46 1009.11 1009.63 1010.03 1010.32 1010.54 1010.69 1010.79 1010.81 1010.76 1010.61 1010.36 1010.02 1009.61 1009.18 1008.78 1008.46 1008.26 1008.22 1008.36 1008.68 1009.14 1009.73 1010.38 1011.07 1011.74 1012.39 1012.99 1013.54 1014.05 1014.55 1015.03 1015.52 1016.04 1016.57 1017.13
1003.12 1003.60 1004.34 1005.30 1006.39 1007.53 1008.63 1009.62 1010.47 1011.15 1011.67 1012.04 1012.29 1012.45 1012.53 1012.55 1012.51 1012.39 1012.19 1011.89 1011.50 1011.05 1010.56 1010.09 1009.67 1009.35 1009.16 1009.15 1009.30 1009.60 1010.03 1010.55 1011.13 1011.73 1012.32 1012.89 1013.43 1013.94 1014.43 1014.91 1015.40 1015.90 1016.43 1016.98
1004.62 1005.28 1006.19 1007.29 1008.50 1009.71 1010.86 1011.87 1012.69 1013.31 1013.74 1014.01 1014.13 1014.16 1014.12 1014.03 1013.90 1013.72 1013.49 1013.18 1012.81 1012.37 1011.90 1011.41 1010.96 1010.57 1010.29 1010.15 1010.15 1010.30 1010.58 1010.97 1011.43 1011.95 1012.48 1013.01 1013.54 1014.04 1014.53 1015.02 1015.51 1016.01 1016.53 1017.07
1006.61 1007.44 1008.48 1009.69 1010.95 1012.19 1013.32 1014.27 1014.99 1015.49 1015.76 1015.85 1015.79 1015.64 1015.44 1015.22 1014.99 1014.75 1014.50 1014.22 1013.90 1013.53 1013.12 1012.68 1012.25 1011.85 1011.52 1011.30 1011.19 1011.21 1011.35 1011.62 1011.97 1012.40 1012.88 1013.38 1013.89 1014.40 1014.89 1015.38 1015.87 1016.36 1016.86 1017.38
1009.13 1010.08 1011.20 1012.43 1013.68 1014.86 1015.90 1016.71 1017.28 1017.59 1017.66 1017.54 1017.27 1016.91 1016.53 1016.16 1015.83 1015.54 1015.28 1015.04 1014.79 1014.51 1014.20 1013.85 1013.48 1013.11 1012.77 1012.50 1012.32 1012.24 1012.28 1012.45 1012.72 1013.08 1013.51 1013.99 1014.48 1014.99 1015.48 1015.97 1016.45 1016.92 1017.39 1017.87
1012.18 1013.16 1014.27 1015.43 1016.58 1017.62 1018.49 1019.12 1019.48 1019.58 1019.42 1019.07 1018.58 1018.03 1017.48 1016.97 1016.54 1016.20 1015.94 1015.73 1015.56 1015.37 1015.16 1014.91 1014.62 1014.30 1013.98 1013.69 1013.47 1013.33 1013.31 1013.40 1013.61 1013.92 1014.31 1014.77 1015.26 1015.75 1016.25 1016.72 1017.18 1017.62 1018.05 1018.48
1015.66 1016.58 1017.57 1018.57 1019.53 1020.35 1020.99 1021.39 1021.53 1021.40 1021.03 1020.48 1019.80 1019.08 1018.38 1017.75 1017.24 1016.85 1016.58 1016.40 1016.28 1016.17 1016.05 1015.88 1015.66 1015.40 1015.12 1014.84 1014.60 1014.43 1014.37 1014.41 1014.58 1014.86 1015.22 1015.66 1016.14 1016.63 1017.10 1017.56 1017.99 1018.38 1018.75 1019.12
1019.38 1020.14 1020.92 1021.68 1022.37 1022.93 1023.31 1023.46 1023.38 1023.05 1022.50 1021.79 1020.97 1020.12 1019.31 1018.60 1018.02 1017.59 1017.30 1017.13 1017.04 1016.98 1016.91 1016.80 1016.65 1016.43 1016.18 1015.92 1015.69 1015.51 1015.42 1015.44 1015.58 1015.83 1016.18 1016.59 1017.05 1017.52 1017.97 1018.39 1018.78 1019.12 1019.44 1019.73
1023.10 1023.62 1024.12 1024.58 1024.96 1025.23 1025.34 1025.27 1024.99 1024.50 1023.83 1023.02 1022.12 1021.20 1020.33 1019.57 1018.95 1018.48 1018.17 1017.99 1017.89 1017.85 1017.80 1017.73 1017.60 1017.42 1017.20 1016.95 1016.73 1016.55 1016.46 1016.46 1016.58 1016.80 1017.12 1017.51 1017.93 1018.37 1018.78 1019.16 1019.50 1019.79 1020.04 1020.28
1026.53 1026.77 1026.95 1027.09 1027.16 1027.15 1027.02 1026.76 1026.33 1025.74 1025.01 1024.16 1023.24 1022.32 1021.44 1020.67 1020.02 1019.53 1019.19 1018.98 1018.86 1018.80 1018.75 1018.67 1018.55 1018.39 1018.18 1017.95 1017.73 1017.56 1017.46 1017.45 1017.54 1017.74 1018.02 1018.37 1018.75 1019.13 1019.50 1019.83 1020.11 1020.35 1020.55 1020.74
1029.42 1029.37 1029.25 1029.09 1028.88 1028.63 1028.32 1027.91 1027.40 1026.77 1026.04 1025.21 1024.33 1023.44 1022.60 1021.84 1021.19 1020.69 1020.32 1020.06 1019.91 1019.80 1019.72 1019.62 1019.49 1019.32 1019.12 1018.90 1018.69 1018.53 1018.42 1018.40 1018.47 1018.63 1018.86 1019.16 1019.48 1019.80 1020.10 1020.38 1020.61 1020.80 1020.96 1021.11
1031.63 1031.32 1030.94 1030.53 1030.12 1029.69 1029.25 1028.77 1028.22 1027.61 1026.91 1026.15 1025.34 1024.52 1023.73 1023.00 1022.37 1021.85 1021.45 1021.16 1020.95 1020.79 1020.66 1020.53 1020.38 1020.21 1020.01 1019.80 1019.60 1019.43 1019.33 1019.29 1019.33 1019.45 1019.64 1019.87 1020.12 1020.38 1020.62 1020.83 1021.01 1021.16 1021.28 1021.41
1033.11 1032.61 1032.04 1031.47 1030.92 1030.39 1029.88 1029.37 1028.84 1028.27 1027.64 1026.96 1026.23 1025.49 1024.76 1024.07 1023.46 1022.93 1022.49 1022.15 1021.89 1021.68 1021.51 1021.34 1021.17 1020.98 1020.78 1020.58 1020.40 1020.24 1020.14 1020.10 1020.12 1020.20 1020.33 1020.50 1020.69 1020.88 1021.05 1021.20 1021.33 1021.44 1021.53 1021.63
1033.94 1033.32 1032.65 1031.99 1031.38 1030.81 1030.29 1029.80 1029.31 1028.79 1028.24 1027.63 1026.98 1026.31 1025.63 1024.97 1024.37 1023.82 1023.36 1022.97 1022.65 1022.39 1022.17 1021.97 1021.78 1021.58 1021.39 1021.21 1021.04 1020.91 1020.81 1020.77 1020.78 1020.83 1020.92 1021.04 1021.17 1021.29 1021.41 1021.50 1021.58 1021.65 1021.72 1021.79
1034.29 1033.61 1032.91 1032.23 1031.61 1031.06 1030.56 1030.11 1029.66 1029.20 1028.71 1028.16 1027.57 1026.94 1026.29 1025.65 1025.04 1024.48 1023.98 1023.54 1023.18 1022.87 1022.60 1022.37 1022.16 1021.97 1021.79 1021.63 1021.49 1021.38 1021.30 1021.27 1021.27 1021.31 1021.38 1021.46 1021.54 1021.62 1021.68 1021.73 1021.76 1021.79 1021.82 1021.87
1034.31 1033.64 1032.96 1032.31 1031.73 1031.21 1030.76 1030.34 1029.93 1029.51 1029.05 1028.54 1027.97 1027.36 1026.73 1026.09 1025.46 1024.87 1024.33 1023.86 1023.45 1023.10 1022.80 1022.54 1022.32 1022.12 1021.95 1021.81 1021.69 1021.61 1021.56 1021.55 1021.56 1021.60 1021.65 1021.71 1021.77 1021.81 1021.84 1021.85 1021.85 1021.84 1021.84 1021.85
1034.17 1033.53 1032.90 1032.31 1031.77 1031.30 1030.89 1030.50 1030.11 1029.70 1029.25 1028.74 1028.18 1027.57 1026.93 1026.27 1025.63 1025.02 1024.45 1023.94 1023.50 1023.11 1022.78 1022.50 1022.26 1022.06 1021.89 1021.76 1021.67 1021.61 1021.58 1021.59 1021.62 1021.67 1021.72 1021.78 1021.82 1021.85 1021.85 1021.84 1021.81 1021.77 1021.73 1021.70
1033.97 1033.37 1032.79 1032.24 1031.76 1031.32 1030.92 1030.54 1030.15 1029.73 1029.27 1028.75 1028.17 1027.55 1026.90 1026.23 1025.58 1024.96 1024.37 1023.84 1023.37 1022.95 1022.59 1022.29 1022.03 1021.82 1021.65 1021.52 1021.43 1021.39 1021.38 1021.40 1021.44 1021.51 1021.57 1021.63 1021.67 1021.69 1021.69 1021.66 1021.61 1021.55 1021.49 1021.43
1033.72 1033.15 1032.60 1032.10 1031.64 1031.22 1030.82 1030.43 1030.02 1029.57 1029.08 1028.54 1027.94 1027.31 1026.66 1026.00 1025.35 1024.73 1024.15 1023.61 1023.13 1022.70 1022.32 1021.99 1021.70 1021.47 1021.28 1021.14 1021.05 1021.00 1020.99 1021.01 1021.07 1021.13 1021.21 1021.27 1021.32 1021.34 1021.34 1021.31 1021.25 1021.18 1021.10 1021.03
1033.39 1032.84 1032.31 1031.82 1031.37 1030.94 1030.53 1030.11 1029.67 1029.19 1028.67 1028.11 1027.51 1026.88 1026.24 1025.60 1024.98 1024.38 1023.82 1023.30 1022.82 1022.39 1021.99 1021.64 1021.34 1021.07 1020.85 1020.68 1020.56 1020.49 1020.47 1020.48 1020.53 1020.60 1020.67 1020.74 1020.79 1020.82 1020.82 1020.80 1020.75 1020.68 1020.60 1020.51
1032.94 1032.38 1031.86 1031.37 1030.91 1030.46 1030.02 1029.57 1029.09 1028.58 1028.04 1027.47 1026.87 1026.27 1025.66 1025.06 1024.48 1023.94 1023.42 1022.93 1022.47 1022.05 1021.65 1021.29 1020.95 1020.65 1020.40 1020.19 1020.03 1019.93 1019.87 1019.86 1019.89 1019.95 1020.01 1020.08 1020.14 1020.18 1020.19 1020.17 1020.13 1020.07 1020.00 1019.92
1032.33 1031.76 1031.23 1030.73 1030.25 1029.78 1029.31 1028.82 1028.32 1027.78 1027.23 1026.66 1026.08 1025.51 1024.95 1024.41 1023.89 1023.40 1022.94 1022.50 1022.08 1021.67 1021.28 1020.90 1020.55 1020.22 1019.93 1019.68 1019.48 1019.33 1019.24 1019.20 1019.20 1019.24 1019.30 1019.36 1019.42 1019.46 1019.48 1019.48 1019.45 1019.41 1019.35 1019.28
1031.56 1030.98 1030.45 1029.94 1029.44 1028.96 1028.46 1027.95 1027.41 1026.86 1026.30 1025.74 1025.19 1024.65 1024.14 1023.66 1023.20 1022.78 1022.37 1021.98 1021.60 1021.22 1020.84 1020.46 1020.10 1019.75 1019.42 1019.14 1018.90 1018.72 1018.59 1018.52 1018.50 1018.52 1018.57 1018.62 1018.68 1018.73 1018.76 1018.77 1018.76 1018.73 1018.68 1018.62
1030.68 1030.11 1029.58 1029.07 1028.57 1028.06 1027.55 1027.01 1026.46 1025.90 1025.34 1024.78 1024.25 1023.74 1023.27 1022.84 1022.44 1022.06 1021.71 1021.36 1021.02 1020.66 1020.30 1019.93 1019.56 1019.20 1018.85 1018.55 1018.29 1018.09 1017.94 1017.85 1017.82 1017.82 1017.86 1017.92 1017.98 1018.03 1018.07 1018.09 1018.09 1018.07 1018.03 1017.97
1029.77 1029.22 1028.71 1028.21 1027.71 1027.20 1026.67 1026.12 1025.55 1024.97 1024.40 1023.84 1023.31 1022.82 1022.38 1021.97 1021.61 1021.27 1020.95 1020.63 1020.31 1019.98 1019.63 1019.27 1018.91 1018.55 1018.20 1017.90 1017.63 1017.43 1017.28 1017.19 1017.15 1017.16 1017.20 1017.26 1017.33 1017.39 1017.43 1017.46 1017.46 1017.43 1017.39 1017.32
1028.92 1028.41 1027.93 1027.44 1026.95 1026.44 1025.90 1025.33 1024.74 1024.14 1023.55 1022.98 1022.44 1021.95 1021.50 1021.10 1020.74 1020.42 1020.11 1019.80 1019.50 1019.18 1018.84 1018.49 1018.14 1017.80 1017.47 1017.17 1016.93 1016.73 1016.60 1016.52 1016.50 1016.52 1016.57 1016.64 1016.71 1016.78 1016.82 1016.85 1016.84 1016.80 1016.73 1016.63
Thickness
5435 5438 5438 5439 5441 5437 5437 5440 5441 5447 5442 5453 5447 5440 5435 5428 5423 5419 5416 5413 5408 5403 5399 5396 5392 5388 5385 5382 5379 5376 5372 5368 5365 5361 5358 5354 5351 5348 5345 5342 5339 5336 5334 5331
5423 5429 5428 5428 5434 5433 5432 5431 5431 5434 5435 5437 5432 5426 5421 5416 5413 5409 5406 5402 5397 5392 5389 5385 5381 5377 5374 5370 5367 5363 5360 5356 5353 5350 5346 5343 5339 5336 5332 5329 5326 5323 5321 5318
5415 5416 5421 5422 5427 5428 5424 5421 5422 5425 5428 5419 5415 5414 5410 5406 5403 5400 5395 5391 5386 5381 5377 5373 5369 5365 5361 5357 5354 5350 5347 5344 5341 5338 5334 5331 5327 5324 5320 5317 5313 5310 5308 5305
5398 5405 5410 5428 5417 5418 5414 5410 5408 5411 5409 5406 5404 5399 5394 5392 5389 5386 5384 5380 5374 5369 5364 5360 5356 5352 5348 5344 5341 5337 5334 5330 5328 5325 5321 5318 5314 5311 5307 5304 5300 5298 5296 5293
5388 5390 5400 5411 5407 5399 5400 5402 5399 5397 5394 5391 5387 5386 5383 5380 5377 5373 5370 5366 5361 5356 5352 5347 5343 5339 5335 5331 5328 5324 5321 5318 5315 5312 5309 5305 5301 5298 5294 5291 5288 5285 5283 5281
5376 5386 5395 5407 5394 5389 5393 5394 5392 5385 5381 5377 5377 5378 5377 5368 5363 5359 5356 5352 5347 5342 5338 5334 5330 5326 5323 5318 5314 5311 5308 5305 5302 5299 5295 5292 5288 5285 5281 5278 5276 5273 5271 5269
5366 5371 5381 5382 5377 5383 5386 5390 5381 5375 5372 5367 5363 5364 5358 5352 5349 5345 5342 5338 5334 5329 5324 5320 5316 5313 5309 5305 5301 5298 5295 5292 5289 5285 5282 5278 5275 5272 5269 5266 5263 5261 5259 5257
5355 5359 5373 5367 5365 5367 5370 5367 5365 5363 5360 5354 5348 5344 5341 5338 5335 5332 5327 5324 5320 5315 5310 5306 5303 5300 5296 5292 5289 5285 5282 5279 5275 5271 5268 5266 5262 5259 5256 5253 5251 5248 5246 5245
5355 5363 5359 5352 5354 5354 5353 5353 5352 5349 5346 5342 5336 5332 5329 5325 5322 5318 5314 5310 5306 5301 5296 5292 5289 5286 5282 5279 5275 5272 5268 5265 5261 5258 5255 5252 5249 5247 5244 5241 5238 5237 5235 5233
5341 5346 5346 5344 5342 5343 5341 5341 5341 5338 5334 5330 5325 5321 5316 5313 5309 5305 5300 5296 5292 5288 5283 5279 5275 5272 5269 5266 5263 5259 5255 5251 5248 5245 5242 5239 5236 5234 5232 5229 5226 5225 5224 5223
5333 5338 5337 5339 5337 5335 5332 5330 5328 5325 5322 5319 5314 5309 5305 5301 5296 5291 5288 5282 5278 5274 5270 5266 5262 5259 5257 5253 5250 5246 5242 5239 5236 5233 5229 5227 5225 5222 5220 5218 5216 5215 5214 5212
5333 5333 5327 5328 5325 5323 5321 5318 5315 5312 5308 5305 5302 5297 5292 5287 5282 5277 5273 5268 5264 5260 5257 5253 5249 5246 5244 5241 5238 5234 5231 5227 5224 5221 5218 5216 5213 5211 5210 5209 5208 5206 5205 5203
5318 5317 5314 5314 5311 5309 5307 5304 5301 5298 5295 5291 5286 5283 5278 5273 5269 5263 5259 5255 5251 5247 5244 5240 5237 5234 5231 5228 5225 5222 5218 5215 5213 5210 5208 5205 5203 5201 5199 5198 5196 5195 5194 5193
5304 5303 5303 5301 5298 5295 5292 5290 5287 5283 5279 5276 5272 5268 5263 5259 5254 5249 5245 5241 5238 5234 5231 5227 5224 5222 5219 5216 5214 5210 5207 5205 5203 5199 5197 5194 5192 5190 5187 5185 5184 5183 5182 5181
5292 5291 5290 5287 5284 5281 5279 5276 5273 5269 5265 5261 5257 5254 5249 5244 5240 5235 5231 5228 5225 5221 5218 5215 5212 5210 5208 5205 5202 5199 5197 5194 5192 5189 5186 5184 5181 5179 5176 5174 5173 5172 5171 5170
5280 5280 5278 5276 5273 5269 5266 5263 5260 5255 5251 5247 5243 5239 5235 5231 5226 5222 5218 5215 5212 5209 5206 5203 5201 5199 5196 5193 5191 5188 5186 5185 5182 5179 5176 5173 5170 5168 5166 5164 5162 5161 5160 5159
5269 5270 5268 5264 5261 5257 5253 5250 5246 5242 5238 5234 5230 5226 5222 5218 5214 5210 5206 5202 5199 5196 5194 5192 5190 5188 5185 5182 5179 5177 5175 5173 5172 5168 5165 5162 5160 5157 5155 5154 5152 5151 5150 5149
5260 5259 5257 5253 5250 5246 5241 5237 5233 5229 5225 5221 5217 5214 5210 5206 5202 5198 5194 5191 5188 5185 5183 5181 5179 5176 5174 5171 5168 5166 5163 5161 5159 5156 5154 5152 5150 5148 5146 5144 5142 5141 5141 5140
5249 5247 5244 5242 5239 5235 5230 5226 5222 5218 5214 5210 5207 5202 5198 5194 5191 5187 5183 5180 5177 5175 5173 5171 5169 5166 5163 5159 5158 5155 5152 5150 5147 5145 5144 5143 5141 5138 5136 5134 5133 5132 5131 5131
5238 5236 5233 5230 5227 5223 5219 5215 5211 5207 5203 5200 5196 5192 5188 5184 5180 5176 5173 5169 5167 5165 5163 5161 5159 5156 5152 5149 5147 5143 5140 5138 5136 5134 5133 5131 5129 5128 5126 5125 5124 5124 5123 5123
5228 5225 5222 5218 5215 5211 5208 5204 5200 5196 5192 5189 5186 5182 5178 5174 5170 5167 5163 5162 5160 5157 5155 5153 5149 5146 5143 5140 5137 5132 5129 5127 5125 5123 5122 5120 5119 5118 5116 5116 5115 5115 5115 5115
5218 5214 5211 5208 5204 5200 5197 5193 5190 5186 5182 5179 5176 5173 5169 5165 5161 5158 5155 5153 5151 5150 5147 5143 5139 5137 5135 5131 5126 5122 5119 5117 5115 5113 5111 5110 5109 5109 5108 5107 5106 5107 5107 5107
5208 5205 5201 5198 5194 5190 5186 5183 5180 5176 5173 5169 5166 5163 5159 5156 5152 5150 5148 5146 5143 5141 5138 5134 5132 5130 5128 5122 5117 5113 5110 5107 5106 5104 5103 5102 5101 5100 5099 5099 5099 5099 5099 5100
5199 5195 5192 5188 5184 5180 5177 5174 5170 5167 5163 5160 5157 5154 5150 5147 5144 5142 5139 5137 5135 5133 5129 5126 5124 5121 5118 5112 5108 5104 5102 5099 5098 5097 5095 5094 5093 5092 5091 5091 5092 5092 5093 5093
5189 5185 5182 5178 5175 5172 5169 5165 5161 5158 5155 5152 5149 5146 5142 5139 5136 5134 5130 5127 5125 5123 5119 5116 5114 5111 5107 5103 5099 5097 5094 5092 5091 5090 5088 5087 5086 5085 5085 5085 5085 5086 5087 5088
5180 5176 5173 5170 5167 5164 5160 5157 5153 5150 5147 5144 5141 5138 5134 5131 5128 5124 5121 5119 5116 5114 5110 5107 5104 5101 5098 5095 5092 5090 5088 5086 5084 5082 5081 5080 5079 5079 5079 5079 5079 5080 5081 5083
5171 5167 5165 5161 5159 5155 5152 5148 5145 5142 5139 5136 5133 5130 5127 5124 5120 5117 5113 5110 5107 5105 5102 5099 5096 5093 5091 5088 5086 5084 5082 5080 5078 5076 5075 5074 5074 5073 5073 5074 5074 5076 5077 5078